User: anonymous   Login
Location: Hickory_Viewmont
(35.7830°N, 81.3170°W)
Time: 00:36:56
(UTC-04:00)
Language:

Okean-O - Orbit

View from above orbital plane
View from above orbital plane
View from above satellite
View from above satellite

Ground track
Ground track

The orbit data is extracted from the following two-line orbital elements,

1 25860U 99039A   15108.05298196  .00001249  00000-0  18919-3 0  9993
2 25860 098.0885 076.0264 0001719 105.4287 320.9011 14.75953963847110
Epoch (UTC): 18 April 2015 01:16:17
Eccentricity: 0.0001719
inclination: 98.0885°
perigee height: 641 km
apogee height: 643 km
right ascension of ascending node: 76.0264°
argument of perigee: 105.4287°
revolutions per day: 14.75953963
mean anomaly at epoch: 320.9011°
orbit number at epoch: 84711

The dashed part of the orbit path shows where the satellite is in the earth's shadow,  

DLR